Retour au catalogue

SL-14 DEB

ActifPO
NORAD 45296·DEBRIS·🇷🇺 Russia

Lancé Aug 15, 1991 depuis Plesetsk Cosmodrome

Loading…

Prochains Passages (prochaines 24 heures)

TLE

FraisSource: Space-Track

Époque: Sep 14, 2026, 13:18 UTC

1 45296U 91056AJ  26257.55465906  .00003457  00000-0  28467-2 0  9997
2 45296  82.6343 307.9038 0192035  22.9432 338.0161 13.80797598326613

Suivez SL-14 DEB en temps réel avec AllMySat

Download on the App Store